FW6772 Weather Reports


time (UTC)temp
C
wind
direction
speed
KPH
gust
KPH
rain 1hr
cm
rain 24hr
cm
rain mn
cm
humidity
%
barometer
mb
20260506222004 25 311 14.5 24.1 0.00 0.00 0.00 34 1012.0
20260506221458 25 321 16.1 30.6 0.00 0.00 0.00 35 1011.8
20260506220952 25 293 17.7 30.6 0.00 0.00 0.00 34 1011.9
20260506220446 25 316 14.5 24.1 0.00 0.00 0.00 33 1011.8
20260506215943 25 298 17.7 27.4 0.00 0.00 0.00 33 1011.8
20260506215436 26 302 17.7 27.4 0.00 0.00 0.00 31 1011.8
20260506214936 26 325 12.9 24.1 0.00 0.00 0.00 32 1011.8
20260506213925 25 319 14.5 29.0 0.00 0.00 0.00 32 1011.8
20260506213424 25 258 17.7 30.6 0.00 0.00 0.00 31 1011.8
20260506211420 26 286 16.1 30.6 0.00 0.00 0.00 31 1011.8
20260506210914 26 295 17.7 27.4 0.00 0.00 0.00 31 1011.9
20260506210407 26 301 16.1 27.4 0.00 0.00 0.00 33 1011.8
20260506205902 26 318 16.1 29.0 0.00 0.00 0.00 32 1011.8
20260506205403 26 281 17.7 29.0 0.00 0.00 0.00 31 1011.9
20260506204857 26 292 17.7 29.0 0.00 0.00 0.00 31 1011.8
20260506204352 26 276 19.3 29.0 0.00 0.00 0.00 32 1011.8
20260506203851 26 305 14.5 24.1 0.00 0.00 0.00 33 1011.8
20260506203352 25 293 12.9 24.1 0.00 0.00 0.00 32 1011.9
20260506202346 26 285 20.9 33.8 0.00 0.00 0.00 30 1011.8
20260506201847 26 298 17.7 37.0 0.00 0.00 0.00 32 1011.9
20260506201341 26 315 12.9 37.0 0.00 0.00 0.00 31 1012.0
20260506200836 26 280 20.9 30.6 0.00 0.00 0.00 30 1012.0
20260506200330 25 290 16.1 30.6 0.00 0.00 0.00 31 1012.0
20260506195830 25 304 17.7 30.6 0.00 0.00 0.00 30 1012.0
20260506194818 25 288 14.5 32.2 0.00 0.00 0.00 32 1012.1
20260506194319 25 294 14.5 30.6 0.00 0.00 0.00 33 1011.9
20260506193314 25 269 16.1 33.8 0.00 0.00 0.00 33 1012.1
20260506192808 25 308 14.5 30.6 0.00 0.00 0.00 33 1012.1
20260506192305 25 266 17.7 30.6 0.00 0.00 0.00 33 1012.1
20260506191802 25 289 14.5 30.6 0.00 0.00 0.00 33 1012.3
20260506191259 25 273 11.3 24.1 0.00 0.00 0.00 34 1012.1
20260506190251 25 271 17.7 33.8 0.00 0.00 0.00 34 1012.4
20260506185745 25 285 12.9 30.6 0.00 0.00 0.00 34 1012.4
20260506185239 25 289 17.7 30.6 0.00 0.00 0.00 31 1012.1
20260506184733 25 292 17.7 30.6 0.00 0.00 0.00 34 1012.0
20260506183728 24 304 19.3 30.6 0.00 0.00 0.00 34 1012.3
20260506183228 24 260 17.7 30.6 0.00 0.00 0.00 35 1012.3
20260506182722 24 318 14.5 30.6 0.00 0.00 0.00 34 1012.4
20260506182223 24 296 17.7 30.6 0.00 0.00 0.00 35 1012.4
20260506181217 24 302 19.3 29.0 0.00 0.00 0.00 35 1012.4
20260506180717 24 307 16.1 25.7 0.00 0.00 0.00 34 1012.4
20260506180218 24 296 16.1 29.0 0.00 0.00 0.00 34 1012.5
20260506175717 25 296 16.1 29.0 0.00 0.00 0.00 34 1012.4
20260506175214 25 321 14.5 25.7 0.00 0.00 0.00 35 1012.3
20260506173706 24 284 16.1 25.7 0.00 0.00 0.00 36 1012.6
20260506172206 23 340 6.4 11.3 0.00 0.00 0.00 38 1012.5
20260506171706 23 297 6.4 11.3 0.00 0.00 0.00 39 1012.6
20260506171200 23 297 6.4 14.5 0.00 0.00 0.00 38 1012.6
20260506170701 23 324 6.4 14.5 0.00 0.00 0.00 38 1012.7
20260506170155 23 29 4.8 12.9 0.00 0.00 0.00 40 1012.7
20260506165149 22 323 8.0 12.9 0.00 0.00 0.00 38 1012.8
20260506164644 22 8 3.2 11.3 0.00 0.00 0.00 40 1012.8
20260506164145 21 37 3.2 12.9 0.00 0.00 0.00 42 1012.9
20260506163644 21 266 3.2 12.9 0.00 0.00 0.00 43 1012.9
20260506163145 21 105 8.0 12.9 0.00 0.00 0.00 49 1013.0
20260506162140 20 38 4.8 9.7 0.00 0.00 0.00 44 1013.1
20260506161635 20 297 3.2 9.7 0.00 0.00 0.00 44 1013.2
20260506160629 19 340 4.8 9.7 0.00 0.00 0.00 46 1013.1
20260506160123 19 331 3.2 8.0 0.00 0.00 0.00 46 1013.2
20260506155624 18 323 6.4 8.0 0.00 0.00 0.00 47 1013.2
20260506155118 18 38 4.8 11.3 0.00 0.00 0.00 47 1013.2
20260506154113 17 321 6.4 12.9 0.00 0.00 0.00 48 1013.3
20260506152603 16 328 3.2 9.7 0.00 0.00 0.00 52 1013.5
20260506151603 15 321 6.4 12.9 0.00 0.00 0.00 53 1013.5
20260506151058 15 315 9.7 11.3 0.00 0.00 0.00 53 1013.5
20260506150553 15 302 8.0 12.9 0.00 0.00 0.00 53 1013.6
20260506150047 15 314 8.0 14.5 0.00 0.00 0.00 54 1013.6
20260506145535 14 336 9.7 16.1 0.00 0.00 0.00 54 1013.7
20260506144029 13 352 8.0 11.3 0.00 0.00 0.00 58 1013.7
20260506143024 13 351 4.8 9.7 0.00 0.00 0.00 58 1014.0
20260506142519 13 311 6.4 9.7 0.00 0.00 0.00 57 1013.7
20260506142013 13 304 4.8 9.7 0.00 0.00 0.00 58 1014.0
20260506141513 12 312 3.2 8.0 0.00 0.00 0.00 57 1014.0
20260506141014 13 310 1.6 9.7 0.00 0.00 0.00 57 1013.9
20260506140513 13 317 4.8 12.9 0.00 0.00 0.00 56 1014.0
20260506135503 12 338 8.0 12.9 0.00 0.00 0.00 57 1013.7
20260506134959 12 347 3.2 8.0 0.00 0.00 0.00 58 1013.7
20260506134457 12 335 4.8 11.3 0.00 0.00 0.00 58 1013.7
20260506133958 12 335 6.4 12.9 0.00 0.00 0.00 58 1013.7
20260506133452 12 325 6.4 12.9 0.00 0.00 0.00 59 1013.7
20260506132951 12 355 9.7 12.9 0.00 0.00 0.00 58 1013.7
20260506132446 12 354 8.0 12.9 0.00 0.00 0.00 59 1013.6
20260506131940 12 351 4.8 9.7 0.00 0.00 0.00 59 1013.6
20260506130930 12 20 4.8 8.0 0.00 0.00 0.00 61 1013.7
20260506130425 12 15 3.2 8.0 0.00 0.00 0.00 60 1013.6
20260506125924 12 333 4.8 12.9 0.00 0.00 0.00 60 1013.7
20260506124911 12 356 4.8 11.3 0.00 0.00 0.00 59 1013.7
20260506124413 12 16 4.8 9.7 0.00 0.00 0.00 60 1013.7
20260506123907 11 337 3.2 6.4 0.00 0.00 0.00 62 1013.4
20260506123407 11 39 3.2 4.8 0.00 0.00 0.00 64 1013.4
20260506122907 11 343 1.6 8.0 0.00 0.00 0.00 63 1013.5
20260506122407 12 323 3.2 12.9 0.00 0.00 0.00 61 1013.3
20260506121900 12 322 6.4 12.9 0.00 0.00 0.00 59 1013.4
20260506121359 12 349 6.4 11.3 0.00 0.00 0.00 58 1013.3
20260506120854 12 345 3.2 9.7 0.00 0.00 0.00 58 1013.3
20260506120349 12 333 3.2 8.0 0.00 0.00 0.00 58 1013.3
20260506114843 12 340 4.8 8.0 0.00 0.00 0.00 59 1013.4
20260506114338 12 342 1.6 8.0 0.00 0.00 0.00 59 1013.3
20260506113838 13 350 4.8 8.0 0.00 0.00 0.00 58 1013.4
20260506113332 13 349 3.2 8.0 0.00 0.00 0.00 57 1013.4
20260506112826 13 32 3.2 8.0 0.00 0.00 0.00 57 1013.4
20260506112322 13 349 3.2 8.0 0.00 0.00 0.00 58 1013.3
20260506111315 12 358 3.2 6.4 0.00 0.00 0.00 58 1013.4
20260506110815 12 335 3.2 6.4 0.00 0.00 0.00 60 1013.5
20260506110311 12 24 3.2 6.4 0.00 0.00 0.00 62 1013.4
20260506105808 12 338 1.6 9.7 0.00 0.00 0.00 60 1013.2
20260506104756 13 323 4.8 8.0 0.00 0.00 0.00 58 1013.2
20260506104258 13 338 3.2 6.4 0.00 0.00 0.00 57 1013.4
20260506103751 13 356 3.2 9.7 0.00 0.00 0.00 56 1013.3
20260506102739 13 349 3.2 9.7 0.00 0.00 0.00 57 1013.3
20260506102233 13 327 6.4 11.3 0.00 0.00 0.00 56 1013.2
20260506101227 13 25 4.8 9.7 0.00 0.00 0.00 56 1013.2
20260506100222 14 335 3.2 6.4 0.00 0.00 0.00 56 1013.2
20260506094716 14 331 6.4 11.3 0.00 0.00 0.00 55 1013.2
20260506094217 14 6 4.8 9.7 0.00 0.00 0.00 55 1013.2
20260506093711 14 345 6.4 9.7 0.00 0.00 0.00 55 1013.3
20260506093212 14 4 3.2 6.4 0.00 0.00 0.00 55 1013.3
20260506092712 14 32 3.2 11.3 0.00 0.00 0.00 56 1013.4
20260506092213 14 348 1.6 11.3 0.00 0.00 0.00 55 1013.2
20260506091706 14 348 8.0 11.3 0.00 0.00 0.00 55 1013.2
20260506091206 14 7 3.2 9.7 0.00 0.00 0.00 55 1013.2
20260506090155 15 355 4.8 9.7 0.00 0.00 0.00 54 1013.3
20260506085655 15 338 3.2 12.9 0.00 0.00 0.00 54 1013.2
20260506084649 15 345 6.4 9.7 0.00 0.00 0.00 55 1013.2
20260506084150 15 354 3.2 8.0 0.00 0.00 0.00 56 1013.2
20260506083650 15 345 1.6 12.9 0.00 0.00 0.00 56 1013.1
20260506083144 15 319 8.0 12.9 0.00 0.00 0.00 54 1013.2
20260506082644 15 335 6.4 11.3 0.00 0.00 0.00 54 1013.1
20260506082144 15 336 8.0 11.3 0.00 0.00 0.00 54 1013.1
20260506081138 15 349 1.6 9.7 0.00 0.00 0.00 55 1013.1
20260506080633 15 35 4.8 9.7 0.00 0.00 0.00 54 1013.2
20260506080133 15 15 3.2 8.0 0.00 0.00 0.00 54 1013.0
20260506073113 16 69 1.6 6.4 0.00 0.00 0.00 52 1012.8
20260506072607 16 347 3.2 6.4 0.00 0.00 0.00 52 1012.7
20260506072107 16 329 3.2 6.4 0.00 0.00 0.00 52 1012.7
20260506070602 16 21 3.2 6.4 0.00 0.00 0.00 53 1012.5
20260506061524 18 5 3.2 8.0 0.00 0.00 0.00 48 1012.1
20260506061019 18 357 4.8 6.4 0.00 0.00 0.00 48 1012.0
20260506051014 21 324 6.4 14.5 0.00 0.00 0.00 42 1012.0
20260506050513 21 314 6.4 14.5 0.00 0.00 0.00 42 1011.9
20260506044956 21 336 3.2 9.7 0.00 0.00 0.00 42 1011.8
20260506044450 21 339 4.8 9.7 0.00 0.00 0.00 42 1011.8
20260506043439 21 31 1.6 6.4 0.00 0.00 0.00 43 1011.8
20260506042932 21 34 1.6 4.8 0.00 0.00 0.00 43 1011.5
20260506042434 21 23 1.6 6.4 0.00 0.00 0.00 42 1011.6
20260506041928 21 32 0.0 6.4 0.00 0.00 0.00 42 1011.6
20260506040917 22 31 1.6 6.4 0.00 0.00 0.00 40 1011.4
20260506035907 22 342 0.0 11.3 0.00 0.00 0.00 38 1011.3
20260506035406 22 75 1.6 4.8 0.00 0.00 0.00 38 1011.3
20260506034900 22 314 1.6 9.7 0.00 0.00 0.00 38 1011.2
20260506034355 23 301 4.8 9.7 0.00 0.00 0.00 37 1010.9
20260506033851 23 72 3.2 12.9 0.00 0.00 0.00 37 1010.9
20260506032310 23 287 1.6 12.9 0.00 0.00 0.00 37 1010.8
20260506031806 23 27 8.0 17.7 0.00 0.00 0.00 36 1010.7
20260506031301 23 331 4.8 17.7 0.00 0.00 0.00 36 1010.4
20260506030258 24 309 6.4 12.9 0.00 0.00 0.00 35 1010.3
20260506025753 24 288 3.2 24.1 0.00 0.00 0.00 35 1010.1
20260506025246 25 304 8.0 24.1 0.00 0.00 0.00 33 1010.1
20260506024236 25 267 8.0 14.5 0.00 0.00 0.00 33 1009.9
20260506023733 25 263 8.0 14.5 0.00 0.00 0.00 32 1010.0
20260506023226 26 262 6.4 20.9 0.00 0.00 0.00 32 1010.0
20260506022721 26 260 8.0 20.9 0.00 0.00 0.00 32 1009.9
20260506022217 26 284 8.0 25.7 0.00 0.00 0.00 31 1010.0
20260506021711 26 264 12.9 25.7 0.00 0.00 0.00 30 1009.8
20260506021207 26 295 9.7 30.6 0.00 0.00 0.00 30 1009.9
20260506020701 26 245 12.9 30.6 0.00 0.00 0.00 30 1009.8
20260506020155 27 310 12.9 22.5 0.00 0.00 0.00 29 1009.8
20260506015144 27 266 11.3 17.7 0.00 0.00 0.00 29 1009.7
20260506014642 27 271 11.3 19.3 0.00 0.00 0.00 29 1009.6
20260506014135 27 278 8.0 19.3 0.00 0.00 0.00 29 1009.5
20260506013631 27 317 9.7 20.9 0.00 0.00 0.00 28 1009.6
20260506013126 27 287 11.3 20.9 0.00 0.00 0.00 28 1009.7
20260506012621 27 281 11.3 19.3 0.00 0.00 0.00 28 1009.6
20260506012117 28 321 8.0 17.7 0.00 0.00 0.00 29 1009.5
20260506011611 28 272 9.7 17.7 0.00 0.00 0.00 28 1009.8
20260506010605 28 304 8.0 17.7 0.00 0.00 0.00 27 1009.7
20260506010100 28 304 8.0 17.7 0.00 0.00 0.00 27 1009.6
20260506005555 28 300 4.8 11.3 0.00 0.00 0.00 28 1009.7
20260506004544 28 290 8.0 11.3 0.00 0.00 0.00 30 1009.7
20260506004039 28 287 3.2 14.5 0.00 0.00 0.00 28 1009.7
20260506003533 28 129 4.8 14.5 0.00 0.00 0.00 26 1009.7
20260506003034 28 248 1.6 8.0 0.00 0.00 0.00 28 1009.6
20260506002529 28 140 4.8 11.3 0.00 0.00 0.00 27 1009.8
20260506002030 28 128 6.4 11.3 0.00 0.00 0.00 27 1009.8
20260506001532 28 185 4.8 11.3 0.00 0.00 0.00 28 1009.8
20260506000525 28 238 9.7 14.5 0.00 0.00 0.00 26 1009.9
20260505235521 28 280 6.4 16.1 0.00 0.00 0.00 25 1009.9
20260505235019 28 188 6.4 16.1 0.00 0.00 0.00 27 1009.8
20260505234513 29 279 6.4 16.1 0.00 0.00 0.00 27 1010.0
20260505234013 28 247 6.4 12.9 0.00 0.00 0.00 26 1009.9
20260505233008 28 210 4.8 12.9 0.00 0.00 0.00 26 1009.8
20260505231956 28 247 3.2 11.3 0.00 0.00 0.00 27 1009.8
20260505231456 28 285 6.4 11.3 0.00 0.00 0.00 25 1010.0
20260505230955 28 259 6.4 11.3 0.00 0.00 0.00 26 1010.0
20260505230450 28 267 6.4 9.7 0.00 0.00 0.00 26 1010.2
20260505225944 27 278 1.6 6.4 0.00 0.00 0.00 30 1010.1
20260505225445 27 169 1.6 6.4 0.00 0.00 0.00 29 1010.1
20260505224938 27 173 3.2 14.5 0.00 0.00 0.00 25 1010.1
20260505223926 28 304 6.4 12.9 0.00 0.00 0.00 26 1010.2
20260505223420 27 312 8.0 9.7 0.00 0.00 0.00 25 1010.3
20260505222919 28 297 4.8 12.9 0.00 0.00 0.00 25 1010.4
20260505222419 28 283 8.0 12.9 0.00 0.00 0.00 24 1010.6